| time (UTC) | temp C | wind direction | speed KPH | gust KPH | rain 1hr cm | rain 24hr cm | rain mn cm | humidity % | barometer mb |
| 20260507233701 | 0 | 139 | 1.6 | 3.2 | 0.00 | 0.00 | 0.00 | 84 | 1014.2 |
| 20260507231902 | 0 | 135 | 1.6 | 3.2 | 0.00 | 0.00 | 0.00 | 84 | 1014.2 |
| 20260507231001 | 0 | 135 | 1.6 | 3.2 | 0.00 | 0.00 | 0.00 | 84 | 1014.2 |
| 20260507225202 | 0 | 135 | 1.6 | 3.2 | 0.00 | 0.00 | 0.00 | 84 | 1014.2 |
| 20260507224302 | 0 | 135 | 1.6 | 3.2 | 0.00 | 0.00 | 0.00 | 84 | 1014.2 |
| 20260507222501 | 0 | 135 | 1.6 | 3.2 | 0.00 | 0.00 | 0.00 | 84 | 1014.2 |
| 20260507221603 | 0 | 135 | 1.6 | 3.2 | 0.00 | 0.00 | 0.00 | 84 | 1014.2 |
| 20260507215802 | 0 | 135 | 1.6 | 3.2 | 0.00 | 0.00 | 0.00 | 84 | 1014.0 |
| 20260507214903 | 1 | 135 | 3.2 | 3.2 | 0.00 | 0.00 | 0.00 | 84 | 1014.1 |
| 20260507214001 | 1 | 120 | 1.6 | 3.2 | 0.00 | 0.00 | 0.00 | 84 | 1014.1 |
| 20260507213103 | 1 | 130 | 1.6 | 3.2 | 0.00 | 0.00 | 0.00 | 84 | 1014.1 |
| 20260507212201 | 1 | 135 | 3.2 | 3.2 | 0.00 | 0.00 | 0.00 | 84 | 1014.2 |
| 20260507211301 | 1 | 135 | 3.2 | 3.2 | 0.00 | 0.00 | 0.00 | 84 | 1013.9 |
| 20260507210401 | 2 | 135 | 1.6 | 3.2 | 0.00 | 0.00 | 0.00 | 84 | 1014.0 |
| 20260507205502 | 2 | 135 | 1.6 | 3.2 | 0.00 | 0.00 | 0.00 | 84 | 1013.8 |
| 20260507204601 | 3 | 148 | 1.6 | 1.6 | 0.00 | 0.00 | 0.00 | 84 | 1013.8 |
| 20260507202801 | 3 | 143 | 1.6 | 3.2 | 0.00 | 0.00 | 0.00 | 84 | 1013.7 |
| 20260507201902 | 3 | 142 | 1.6 | 3.2 | 0.00 | 0.00 | 0.00 | 84 | 1013.7 |
| 20260507201003 | 4 | 161 | 1.6 | 3.2 | 0.00 | 0.00 | 0.00 | 84 | 1013.6 |
| 20260507195203 | 6 | 183 | 1.6 | 4.8 | 0.00 | 0.00 | 0.00 | 84 | 1013.4 |
| 20260507193402 | 7 | 212 | 4.8 | 6.4 | 0.00 | 0.00 | 0.00 | 84 | 1013.3 |
| 20260507190703 | 9 | 242 | 8.0 | 9.7 | 0.00 | 0.00 | 0.00 | 84 | 1013.1 |
| 20260507185801 | 10 | 222 | 9.7 | 19.3 | 0.00 | 0.00 | 0.00 | 84 | 1013.1 |
| 20260507184901 | 10 | 242 | 8.0 | 11.3 | 0.00 | 0.00 | 0.00 | 84 | 1012.8 |
| 20260507184001 | 11 | 228 | 8.0 | 12.9 | 0.00 | 0.00 | 0.00 | 84 | 1012.8 |
| 20260507183102 | 11 | 214 | 6.4 | 11.3 | 0.00 | 0.00 | 0.00 | 84 | 1012.9 |
| 20260507182203 | 11 | 228 | 9.7 | 14.5 | 0.00 | 0.00 | 0.00 | 84 | 1012.8 |
| 20260507181303 | 11 | 232 | 11.3 | 16.1 | 0.00 | 0.00 | 0.00 | 84 | 1012.7 |
| 20260507180402 | 12 | 232 | 8.0 | 14.5 | 0.00 | 0.00 | 0.00 | 84 | 1012.7 |
| 20260507174601 | 12 | 233 | 8.0 | 11.3 | 0.00 | 0.00 | 0.00 | 84 | 1012.4 |
| 20260507173702 | 12 | 187 | 8.0 | 16.1 | 0.00 | 0.00 | 0.00 | 84 | 1012.2 |
| 20260507172801 | 12 | 204 | 8.0 | 12.9 | 0.00 | 0.00 | 0.00 | 84 | 1012.2 |
| 20260507171902 | 12 | 191 | 8.0 | 9.7 | 0.00 | 0.00 | 0.00 | 84 | 1012.2 |
| 20260507171001 | 12 | 218 | 8.0 | 11.3 | 0.00 | 0.00 | 0.00 | 84 | 1012.2 |
| 20260507165202 | 13 | 218 | 8.0 | 14.5 | 0.00 | 0.00 | 0.00 | 84 | 1011.9 |
| 20260507162501 | 13 | 218 | 8.0 | 14.5 | 0.00 | 0.00 | 0.00 | 84 | 1011.9 |
| 20260507161601 | 14 | 216 | 8.0 | 14.5 | 0.00 | 0.00 | 0.00 | 84 | 1011.9 |
| 20260507160703 | 14 | 261 | 8.0 | 8.0 | 0.00 | 0.00 | 0.00 | 84 | 1011.8 |
| 20260507155801 | 14 | 212 | 9.7 | 16.1 | 0.00 | 0.00 | 0.00 | 84 | 1011.9 |
| 20260507154903 | 14 | 204 | 9.7 | 16.1 | 0.00 | 0.00 | 0.00 | 84 | 1011.8 |
| 20260507154001 | 15 | 213 | 11.3 | 14.5 | 0.00 | 0.00 | 0.00 | 84 | 1011.8 |
| 20260507151302 | 15 | 213 | 8.0 | 14.5 | 0.00 | 0.00 | 0.00 | 84 | 1011.6 |
| 20260507150401 | 15 | 211 | 6.4 | 12.9 | 0.00 | 0.00 | 0.00 | 84 | 1011.5 |
| 20260507145503 | 15 | 228 | 8.0 | 12.9 | 0.00 | 0.00 | 0.00 | 84 | 1011.4 |
| 20260507144601 | 15 | 275 | 4.8 | 8.0 | 0.00 | 0.00 | 0.00 | 84 | 1011.5 |
| 20260507142803 | 15 | 244 | 9.7 | 12.9 | 0.00 | 0.00 | 0.00 | 84 | 1011.6 |
| 20260507141901 | 14 | 315 | 4.8 | 6.4 | 0.00 | 0.00 | 0.00 | 84 | 1011.5 |
| 20260507141003 | 14 | 278 | 8.0 | 8.0 | 0.00 | 0.00 | 0.00 | 84 | 1011.4 |
| 20260507135201 | 13 | 322 | 4.8 | 9.7 | 0.00 | 0.00 | 0.00 | 84 | 1011.3 |
| 20260507134301 | 13 | 325 | 6.4 | 12.9 | 0.00 | 0.00 | 0.00 | 84 | 1011.5 |
| 20260507133401 | 13 | 238 | 9.7 | 17.7 | 0.00 | 0.00 | 0.00 | 84 | 1011.5 |
| 20260507131603 | 15 | 213 | 6.4 | 9.7 | 0.00 | 0.00 | 0.00 | 84 | 1011.3 |
| 20260507130701 | 15 | 346 | 8.0 | 9.7 | 0.00 | 0.00 | 0.00 | 84 | 1011.3 |
| 20260507125803 | 15 | 198 | 6.4 | 8.0 | 0.00 | 0.00 | 0.00 | 84 | 1011.3 |
| 20260507124901 | 14 | 215 | 8.0 | 9.7 | 0.00 | 0.00 | 0.00 | 84 | 1011.3 |
| 20260507124002 | 13 | 241 | 8.0 | 12.9 | 0.00 | 0.00 | 0.00 | 84 | 1011.4 |
| 20260507123101 | 14 | 259 | 6.4 | 9.7 | 0.00 | 0.00 | 0.00 | 84 | 1011.3 |
| 20260507122202 | 13 | 167 | 4.8 | 6.4 | 0.00 | 0.00 | 0.00 | 84 | 1011.3 |
| 20260507121301 | 12 | 297 | 6.4 | 8.0 | 0.00 | 0.00 | 0.00 | 84 | 1011.3 |
| 20260507120401 | 12 | 356 | 8.0 | 12.9 | 0.00 | 0.00 | 0.00 | 84 | 1011.2 |
| 20260507115502 | 12 | 359 | 9.7 | 12.9 | 0.00 | 0.00 | 0.00 | 84 | 1011.3 |
| 20260507114601 | 13 | 239 | 6.4 | 9.7 | 0.00 | 0.00 | 0.00 | 84 | 1011.4 |
| 20260507113701 | 12 | 195 | 4.8 | 6.4 | 0.00 | 0.00 | 0.00 | 84 | 1011.3 |
| 20260507112801 | 12 | 259 | 6.4 | 12.9 | 0.00 | 0.00 | 0.00 | 84 | 1011.3 |
| 20260507111902 | 11 | 323 | 9.7 | 17.7 | 0.00 | 0.00 | 0.00 | 84 | 1011.6 |
| 20260507111001 | 11 | 323 | 8.0 | 12.9 | 0.00 | 0.00 | 0.00 | 84 | 1011.4 |
| 20260507104301 | 12 | 195 | 6.4 | 9.7 | 0.00 | 0.00 | 0.00 | 84 | 1011.4 |
| 20260507103402 | 12 | 202 | 4.8 | 6.4 | 0.00 | 0.00 | 0.00 | 84 | 1011.3 |
| 20260507102501 | 11 | 278 | 6.4 | 11.3 | 0.00 | 0.00 | 0.00 | 84 | 1011.4 |
| 20260507101602 | 11 | 281 | 6.4 | 9.7 | 0.00 | 0.00 | 0.00 | 84 | 1011.4 |
| 20260507100701 | 10 | 224 | 4.8 | 12.9 | 0.00 | 0.00 | 0.00 | 84 | 1011.3 |
| 20260507095801 | 10 | 245 | 4.8 | 11.3 | 0.00 | 0.00 | 0.00 | 84 | 1011.2 |
| 20260507094901 | 10 | 191 | 3.2 | 6.4 | 0.00 | 0.00 | 0.00 | 84 | 1011.0 |
| 20260507094001 | 10 | 333 | 6.4 | 11.3 | 0.00 | 0.00 | 0.00 | 84 | 1011.1 |
| 20260507093101 | 9 | 342 | 6.4 | 12.9 | 0.00 | 0.00 | 0.00 | 84 | 1011.1 |
| 20260507092203 | 9 | 2 | 6.4 | 8.0 | 0.00 | 0.00 | 0.00 | 84 | 1011.2 |
| 20260507091301 | 8 | 332 | 6.4 | 8.0 | 0.00 | 0.00 | 0.00 | 84 | 1011.1 |
| 20260507085501 | 8 | 344 | 8.0 | 12.9 | 0.00 | 0.00 | 0.00 | 84 | 1011.3 |
| 20260507084601 | 7 | 263 | 6.4 | 12.9 | 0.00 | 0.00 | 0.00 | 84 | 1011.3 |
| 20260507083701 | 7 | 320 | 8.0 | 14.5 | 0.00 | 0.00 | 0.00 | 84 | 1011.3 |
| 20260507081902 | 7 | 9 | 9.7 | 12.9 | 0.00 | 0.00 | 0.00 | 84 | 1011.1 |
| 20260507081001 | 7 | 196 | 4.8 | 9.7 | 0.00 | 0.00 | 0.00 | 84 | 1011.0 |
| 20260507075201 | 6 | 322 | 8.0 | 9.7 | 0.00 | 0.00 | 0.00 | 84 | 1010.9 |
| 20260507073401 | 5 | 333 | 6.4 | 9.7 | 0.00 | 0.00 | 0.00 | 84 | 1010.8 |
| 20260507072503 | 5 | 13 | 8.0 | 11.3 | 0.00 | 0.00 | 0.00 | 84 | 1010.7 |
| 20260507070702 | 5 | 325 | 8.0 | 14.5 | 0.00 | 0.00 | 0.00 | 84 | 1010.7 |
| 20260507065801 | 4 | 240 | 6.4 | 14.5 | 0.00 | 0.00 | 0.00 | 84 | 1010.6 |
| 20260507064901 | 4 | 228 | 4.8 | 9.7 | 0.00 | 0.00 | 0.00 | 84 | 1010.6 |
| 20260507063101 | 3 | 332 | 9.7 | 12.9 | 0.00 | 0.00 | 0.00 | 84 | 1010.5 |
| 20260507062201 | 3 | 326 | 8.0 | 11.3 | 0.00 | 0.00 | 0.00 | 84 | 1010.4 |
| 20260507060401 | 2 | 336 | 12.9 | 16.1 | 0.00 | 0.00 | 0.00 | 84 | 1010.3 |
| 20260507055503 | 2 | 342 | 12.9 | 17.7 | 0.00 | 0.00 | 0.00 | 84 | 1010.2 |
| 20260507054601 | 2 | 340 | 12.9 | 17.7 | 0.00 | 0.00 | 0.00 | 84 | 1010.2 |
| 20260507053701 | 2 | 350 | 12.9 | 17.7 | 0.00 | 0.00 | 0.00 | 84 | 1010.1 |
| 20260507052801 | 2 | 345 | 8.0 | 11.3 | 0.00 | 0.00 | 0.00 | 84 | 1009.9 |
| 20260507051901 | 1 | 350 | 6.4 | 9.7 | 0.00 | 0.00 | 0.00 | 84 | 1010.0 |
| 20260507051001 | 1 | 251 | 4.8 | 9.7 | 0.00 | 0.00 | 0.00 | 84 | 1009.9 |
| 20260507045201 | 0 | 238 | 4.8 | 9.7 | 0.00 | 0.00 | 0.00 | 84 | 1009.9 |
| 20260507044302 | 0 | 294 | 4.8 | 8.0 | 0.00 | 0.00 | 0.00 | 84 | 1009.9 |
| 20260507043401 | 0 | 356 | 4.8 | 6.4 | 0.00 | 0.00 | 0.00 | 84 | 1009.8 |
| 20260507042501 | 0 | 338 | 3.2 | 6.4 | 0.00 | 0.00 | 0.00 | 84 | 1009.9 |
| 20260507041601 | 0 | 188 | 3.2 | 4.8 | 0.00 | 0.00 | 0.00 | 84 | 1009.7 |
| 20260507040702 | 0 | 225 | 3.2 | 4.8 | 0.00 | 0.00 | 0.00 | 84 | 1009.8 |
| 20260507035801 | 0 | 208 | 3.2 | 4.8 | 0.00 | 0.00 | 0.00 | 84 | 1009.6 |
| 20260507034901 | 0 | 161 | 3.2 | 6.4 | 0.00 | 0.00 | 0.00 | 84 | 1009.4 |
| 20260507033101 | 0 | 179 | 4.8 | 9.7 | 0.00 | 0.00 | 0.00 | 84 | 1009.2 |
| 20260507032201 | 0 | 201 | 4.8 | 8.0 | 0.00 | 0.00 | 0.00 | 84 | 1009.4 |
| 20260507024601 | 0 | 185 | 3.2 | 8.0 | 0.00 | 0.00 | 0.00 | 84 | 1009.2 |
| 20260507023702 | 0 | 334 | 3.2 | 6.4 | 0.00 | 0.00 | 0.00 | 84 | 1009.1 |
| 20260507022801 | 0 | 200 | 3.2 | 4.8 | 0.00 | 0.00 | 0.00 | 84 | 1009.0 |
| 20260507021903 | 0 | 238 | 3.2 | 4.8 | 0.00 | 0.00 | 0.00 | 84 | 1009.1 |
| 20260507021001 | 0 | 218 | 3.2 | 4.8 | 0.00 | 0.00 | 0.00 | 84 | 1009.0 |
| 20260507015201 | 1 | 254 | 3.2 | 6.4 | 0.00 | 0.00 | 0.00 | 84 | 1009.0 |
| 20260507014303 | 1 | 239 | 3.2 | 3.2 | 0.00 | 0.00 | 0.00 | 84 | 1008.9 |
| 20260507013401 | 1 | 192 | 3.2 | 8.0 | 0.00 | 0.00 | 0.00 | 84 | 1009.2 |
| 20260507012501 | 1 | 330 | 6.4 | 11.3 | 0.00 | 0.00 | 0.00 | 84 | 1008.9 |
| 20260507011601 | 1 | 327 | 8.0 | 14.5 | 0.00 | 0.00 | 0.00 | 84 | 1008.9 |
| 20260507010701 | 1 | 151 | 3.2 | 3.2 | 0.00 | 0.00 | 0.00 | 84 | 1008.7 |
| 20260507005801 | 1 | 158 | 4.8 | 6.4 | 0.00 | 0.00 | 0.00 | 84 | 1008.8 |
| 20260507004903 | 0 | 166 | 3.2 | 6.4 | 0.00 | 0.00 | 0.00 | 84 | 1008.6 |
| 20260507004001 | 1 | 158 | 3.2 | 6.4 | 0.00 | 0.00 | 0.00 | 84 | 1008.6 |
| 20260507003101 | 1 | 58 | 4.8 | 8.0 | 0.00 | 0.00 | 0.00 | 84 | 1008.5 |
| 20260507002201 | 1 | 353 | 8.0 | 17.7 | 0.00 | 0.00 | 0.00 | 84 | 1008.5 |
| 20260507001301 | 1 | 334 | 6.4 | 12.9 | 0.00 | 0.00 | 0.00 | 84 | 1008.5 |
| 20260507000401 | 2 | 341 | 8.0 | 9.7 | 0.00 | 0.00 | 0.00 | 84 | 1008.6 |
| 20260506235501 | 2 | 341 | 8.0 | 11.3 | 0.00 | 0.00 | 0.00 | 84 | 1008.4 |
| 20260506234601 | 2 | 332 | 8.0 | 11.3 | 0.00 | 0.00 | 0.00 | 84 | 1008.5 |